This is the latest recevied weather packets stored in our database for station/object KY4EF. If no packets are shown the sender has not sent any weather packets the latest 10 day(s).
| Time | Temp. | Humidity | Pressure | Rain* | Wind** | Luminosity | Snow |
|---|---|---|---|---|---|---|---|
| 1778050211 | 18.33° C | 65% | 1011.8 hPa | 0 mm | - | 0 W/m² | - |
| 1778049908 | 18.89° C | 62% | 1012 hPa | 0 mm | - | 0 W/m² | - |
| 1778049603 | 18.33° C | 60% | 1011.7 hPa | 0 mm | - | 0 W/m² | - |
| 1778049301 | 18.89° C | 62% | 1011.8 hPa | 0 mm | - | 0 W/m² | - |
| 1778048998 | 18.33° C | 62% | 1012 hPa | 0 mm | - | 0 W/m² | - |
| 1778048697 | 18.33° C | 61% | 1012 hPa | 0 mm | - | 0 W/m² | - |
| 1778048393 | 18.33° C | 62% | 1012.3 hPa | 0 mm | - | 0 W/m² | - |
| 1778048089 | 18.33° C | 61% | 1012.4 hPa | 0 mm | - | 0 W/m² | - |
| 1778047787 | 18.33° C | 59% | 1012.2 hPa | 0 mm | - | 0 W/m² | - |
| 1778047486 | 18.33° C | 61% | 1012 hPa | 0 mm | - | 0 W/m² | - |
| 1778047182 | 18.33° C | 61% | 1011.8 hPa | 0 mm | - | 0 W/m² | - |
| 1778046879 | 18.33° C | 59% | 1012.3 hPa | 0 mm | - | 0 W/m² | - |
| 1778046575 | 18.33° C | 60% | 1012.6 hPa | 0 mm | - | 0 W/m² | - |
| 1778046273 | 18.33° C | 57% | 1012.7 hPa | 0 mm | - | 0 W/m² | - |
| 1778045968 | 18.33° C | 58% | 1012.6 hPa | 0 mm | - | 0 W/m² | - |
| 1778045667 | 18.33° C | 60% | 1012.8 hPa | 0 mm | - | 0 W/m² | - |
| 1778045365 | 18.33° C | 59% | 1012.5 hPa | 0 mm | - | 0 W/m² | - |
| 1778045064 | 18.33° C | 58% | 1012.7 hPa | 0 mm | - | 0 W/m² | - |
| 1778044761 | 18.33° C | 59% | 1012.6 hPa | 0 mm | - | 0 W/m² | - |
| 1778044457 | 18.33° C | 59% | 1012.5 hPa | 0 mm | - | 0 W/m² | - |
| 1778044154 | 18.33° C | 61% | 1012.4 hPa | 0 mm | - | 0 W/m² | - |
| 1778043852 | 18.33° C | 59% | 1012.3 hPa | 0 mm | - | 0 W/m² | - |
| 1778043549 | 18.33° C | 58% | 1012 hPa | 0 mm | - | 0 W/m² | - |
| 1778043246 | 18.33° C | 62% | 1012.2 hPa | 0 mm | - | 0 W/m² | - |
| 1778042942 | 18.33° C | 59% | 1012.2 hPa | 0 mm | - | 0 W/m² | - |
* Rain latest hour (hover to see other rain measurements)
** Current wind speed in m/s (hover to see current wind gust speed)